Regional Weather Roundup
Issued by NWS Grand Forks, ND

Home | Current Version | Previous Version | Text Only | Print | Product List | Glossary On
Versions: 1 2 3 4 5 6 7 8 9 10 11 12 13 14 15 16 17 18 19 20 21 22 23 24 25 26 27 28 29 30 31 32 33 34 35 36 37 38 39 40 41 42 43 44 45 46 47 48 49 50
000
ASUS43 KFGF 032031
RWRFGF
PRAIRIE TO PINES  WEATHER ROUNDUP
NATIONAL WEATHER SERVICE EASTERN NORTH DAKOTA/GRAND FORKS ND
300 PM CDT SUN MAY 03 2015

 **SATELLITE DATA USED TO AUGMENT SKY COVER AT AUTOMATED STATIONS**
 *****  WEATHER ACROSS EASTERN NORTH DAKOTA  *****

CITY           SKY/WX    TMP DP  RH WIND       PRES   REMARKS
GRAND FORKS    MOSUNNY   69  27  20 NW17G26   29.89S
GRAND FRKS AFB SUNNY     68  25  19 NW22G29   29.89S
GRAND FRKS NWS   N/A     68 N/A N/A NW15        N/A
DEVILS LAKE    SUNNY     63  27  25 NW18G26   29.93S
FARGO          CLOUDY    65  32  29 N12       29.92S
WAHPETON ARPT  CLOUDY    64  25  22 N17       29.94R
$$

 ***** WEATHER ACROSS CENTRAL AND WESTERN NORTH DAKOTA  *****

CITY           SKY/WX    TMP DP  RH WIND       PRES   REMARKS
BISMARCK       MOSUNNY   67  26  21 NW14      30.00R
MINOT          SUNNY     63  24  22 NW24G30   29.98S
JAMESTOWN      MOSUNNY   67  20  16 NW16G29   29.94R
MINOT AFB      SUNNY     64  27  24 NW16G29   29.97S
GARRISON         N/A     63  26  24 W18G25    30.00R
WILLISTON      LGT RAIN  64  22  20 NW21      30.03F
DICKINSON      SUNNY     61  26  26 NW13G22   30.02R
HETTINGER      PTSUNNY   61  28  28 NW8       30.03F
$$

 *****  OTHER AIRPORT OBSERVATIONS IN OUR AREA  *****

CITY           SKY/WX    TMP DP  RH WIND       PRES   REMARKS
WALHALLA       FAIR      64  27  24 NW24G31   29.90S
GRAFTON AIRPOR FAIR      66  28  24 NW21G30   29.90S
VALLEY CITY AR FAIR      68  25  19 NW18G25   29.93S
CANDO          FAIR      63  27  25 NW16G25   29.94S
CAVALIER APRT  FAIR      66  28  24 W14G23    29.90R
GWINNER        CLEAR     64  30  27 N15G22    29.96R
ROLLA          NOT AVBL
 ***** THE ABOVE OBSERVATIONS ARE NON NWS ARE NOT QUALITY
       CONTROLLED AND MAY MIS-REPORT RAIN FOR SNOW...
$$

  *****  WEATHER ACROSS NORTHERN MINNESOTA  *****

CITY           SKY/WX    TMP DP  RH WIND       PRES   REMARKS
FLAG ISLAND    MOSUNNY   61  32  33 NW29G37   29.82R
WARROAD        MOSUNNY   64  34  32 W18G31    29.85R
ROSEAU         MOSUNNY   66  28  24 NW18G28   29.85S
HALLOCK        SUNNY     66  19  16 NW26G32   29.87F
THF RVR FALLS  MOSUNNY   66  27  22 NW13G23   29.89S
BAUDETTE       CLOUDY    65  29  25 W21       29.84S
WASKISH        CLOUDY    63  43  48 W7        29.88R
CROOKSTON      MOSUNNY   66  25  20 N24       29.89S
$$
  *****  WEATHER ACROSS CENTRAL AND WEST MINNESOTA  *****

CITY           SKY/WX    TMP DP  RH WIND       PRES   REMARKS
FOSSTON        NOT AVBL
BEMIDJI        CLOUDY    64  28  26 NW13      29.89S
PARK RAPIDS    CLOUDY    65  33  30 NW10      29.90R
ELBOW LAKE     FAIR      66  38  35 N10       29.90R
WADENA         CLOUDY    64  37  36 NW9       29.90R
DETROIT LAKES  CLOUDY    63  27  25 N12       29.93S
MOORHEAD       CLOUDY    64  28  25 N14G21    29.93F
FERGUS FALLS   CLOUDY    64  36  34 N12G18    29.90R
MORRIS MN      PTSUNNY   68  37  32 N21G26    29.88F
STAPLES        CLOUDY    64  36  34 NW9       29.90R
$$
  *****  WEATHER ELSEWHERE ACROSS MINNESOTA  *****

CITY           SKY/WX    TMP DP  RH WIND       PRES   REMARKS
DULUTH         CLOUDY    73  34  23 NW22G31   29.80R
INTRNTL FALLS  CLOUDY    64  31  28 NW10G24   29.84R
ELY            PTSUNNY   68  30  24 W21G28    29.82R
CLOQUET        CLOUDY    72  30  21 NW8       29.81R
WHEATON        CLOUDY    66  36  32 N17G23    29.92F
BRAINERD       CLOUDY    69  37  30 N18G26    29.86R
HIBBING        PTSUNNY   71  30  21 NW18G26   29.83R
ALEXANDRIA     CLOUDY    64  38  38 N12       29.91R
SAINT CLOUD    MOSUNNY   77  55  46 N9        29.79F
MINNEAPOLIS    MOSUNNY   81  54  39 VRB3      29.75F
$$

  *****  WEATHER ACROSS SOUTH DAKOTA  *****

CITY           SKY/WX    TMP DP  RH WIND       PRES   REMARKS
SIOUX FALLS    PTSUNNY   79  56  45 N23G31    29.80R
BROOKINGS      CLOUDY    70  37  30 NE16G25   29.91R
WATERTOWN      PTSUNNY   65  39  38 NE18G25   29.92R
HURON          CLOUDY    72  37  28 NE21G33   29.91R
SISSETON         N/A     70  36  28 NE18      29.91F
ABERDEEN       PTSUNNY   68  31  25 NE18G25   29.94R
MITCHELL       PTSUNNY   74  40  29 NE28G37   29.86R
PIERRE         SUNNY     74  35  24 N20G30    29.93R
MOBRIDGE       PTSUNNY   65  29  25 N15       29.98R
RAPID CITY     MOSUNNY   68  37  32 NE21      30.00S
$$

  *****  SOME WEATHER IN NEARBY STATES *****

CITY           SKY/WX    TMP DP  RH WIND       PRES   REMARKS
GLASGOW MT     SUNNY     59  23  25 VRB3      30.05F
GREAT FALLS MT SUNNY     59  29  31 E6        29.98F
CHEYENNE WY    PTSUNNY   62  38  40 NE16G23   30.00F
SCOTTSBLUFF NE MOSUNNY   72  39  30 NE14G23   29.96S
OMAHA NE       PTSUNNY   80  59  48 S9        29.73F
DES MOINES IA  MOSUNNY   82  58  43 S17       29.79F
DAVENPORT IA   PTSUNNY   69  60  73 E6        29.88F
CHICAGO IL     CLOUDY    73  50  44 S5        29.92F
EAU CLAIRE WI  SUNNY     78  53  41 VRB5      29.78F
LA CROSSE WI   SUNNY     84  52  33 S12       29.79F
$$

  *****  SOME NATIONAL WEATHER *****

CITY           SKY/WX    TMP DP  RH WIND       PRES   REMARKS
LA GUARDIA NY  MOSUNNY   74  41  30 S14       30.05F
RALEIGH NC     PTSUNNY   76  42  29 CALM      30.16F
ATLANTA GA     MOSUNNY   79  48  33 CALM      30.15F
NEW ORLEANS LA MOSUNNY   80  55  42 VRB7      30.09F
OKLAHOMA CITY  CLOUDY    76  59  55 S17       29.94F
ALBUQUERQUE NM MOSUNNY   75  32  20 NW5       30.00F
SALT LAKE CITY PTSUNNY   74  35  24 W6        29.88S
LOS ANGELES CA MOSUNNY   65  53  65 W14G22    29.94S
BOISE ID       SUNNY     74  32  21 NW13      29.87F
SEATTLE WA     SUNNY     61  39  44 W7        29.98F
$$

*** WEATHER ACROSS MANITOBA...SASKATCHEWAN AND ONTARIO ***
                ***ONTARIO***

CITY           SKY/WX    TMP DP  RH WIND       PRES   REMARKS
GERALDTON      PTSUNNY   72  41  33 W14G36    29.65R
THUNDER BAY    CLOUDY    79  34  19 W16G29    29.69R
SIOUX LOOKOUT  PTSUNNY   59  37  44 NW22G32   29.77R
TORONTO        PTSUNNY   73  45  35 SE13      30.00F
BIG TROUT LK   CLOUDY    41  34  75 NW8       29.76R
PICKLE LAKE    PTSUNNY   55  36  47 VRB6      29.72R
DRYDEN         PTSUNNY   63  34  34 W17G23    29.77R
KENORA         PTSUNNY   63  30  29 W14G30    29.80R
$$
                *** MANITOBA***

CITY           SKY/WX    TMP DP  RH WIND       PRES   REMARKS
BRANDON        MOSUNNY   59  30  33 NW20G31   29.93S
DAUPHIN        MOSUNNY   57  36  44 N15G28    29.91R
ISLAND LAKE    PTSUNNY   43  32  65 NW14      29.82R
PILOT MOUND      N/A     61  25  25 NW16G25     N/A
THE PAS        MOSUNNY   48  34  57 NW3       29.93S
THOMPSON       CLOUDY    34  25  69 N6G20     29.90R
WINNIPEG       PTSUNNY   59  37  44 NW26G33   29.91R
LYNN LAKE      CLOUDY    43  23  45 VRB2      29.88S
CHURCHILL      CLOUDY    27  23  86 N10       29.88S WCI  17
GILLAM         CLOUDY    28  25  86 N12       29.88R WCI  18
$$
                ***SASKATCHEWAN***

CITY           SKY/WX    TMP DP  RH WIND       PRES   REMARKS
ESTEVAN        MOSUNNY   61  28  29 NW17G24   30.02R
KINDERSLEY     PTSUNNY   54  30  40 W9        30.04F
LLOYDMINSTER   PTSUNNY   50  27  40 NW9       30.03F
PRINCE ALBERT  MOSUNNY   54  32  43 NW18G24   29.99S
REGINA         PTSUNNY   57  30  35 W13G23    30.03S
YORKTON        MOSUNNY   54  32  43 NW18G24   29.99R
N. BATTLEFORD  CLOUDY    54  27  35 N14       30.04S
LA RONGE       PTSUNNY   50  27  40 W14G28    29.98S
SASKATOON      PTSUNNY   54  27  35 NW13      30.02F
SWIFT CURRENT  MOSUNNY   55  21  26 W12G21    30.04F
$$
NOTE: THESE ARE AUTOMATED STATIONS WITH LIMITED QUALITY CONTROL
      "FAIR" INDICATES FEW OR NO CLOUDS BELOW 12,000 FEET WITH NO
      SIGNIFICANT WEATHER AND/OR OBSTRUCTIONS TO VISIBILITY.
      SKY/WX - SKY CONDITION AND SIGNIFICANT WEATHER.
      TMP - AIR TEMPERATURE.    DP   - DEWPOINT TEMPERATURE.
      RH  - RELATIVE HUMIDITY.  PRES - PRESSURE.
      HX  - HEAT INDEX.         WCI  - WIND CHILL INDEX.
$



USA.gov is the U.S. government's official web portal to all federal, state and local government web resources and services.